map of GND home
Great Circle Mapper logo
GND - Airport
Location
City:  St. George's, Grenada, Grenada
Name:Maurice Bishop International Airport
Old (Alt.):Point Salines International Airport
ICAO / IATA:TGPY / GND

Details
Type:Airport (Aerodrome, Airfield)
Use:Public/Civil, International (customs port of entry)
Latitude:1200'15"N (12.004167)
Longitude:6147'17"W (-61.788055)
Elevation:39 ft (12 m)
Runways:1
Longest:8999 × 148 ft (2743 × 45 m), paved

Time
Time Zone:UTC-4
Local Time:

Weather
METAR:TGPY 260600Z 11016KT 8000 -SHRA SCT018 BKN038 26/25 Q1012
TAF:TGPY 251100Z 2512/2612 12015KT 9999 SCT019 BKN035
BECMG 2522/2524 10012KT
TEMPO 2504/2508 5000 SHRA BKN017
BECMG 2510/2512 12014KT SCT020

Related Locations
Nearby:
Farthest:TMC: 12241 mi / 19699 km
Tambolaka, ID

Find:

   beyond  
but within

Other Information
Maps:
NOTAMs:
Links:
Sources:

  
flag of Grenada   

Sectional Chart

Flight Planning
at skyvector.com

Satellite Image

Google Maps Satellite View

 

Copyright © 2004-2014 Karl L. Swartz. All rights reserved.
The Great Circle Mapper name and logo are trademarks of the Great Circle Mapper.
All other trademarks mentioned herein belong to their respective owners.
Please see credits for attibutions and further copyright information.

  Follow gcmap on Facebook Follow gcmap on Twitter

hCard Microformat

Geo Microformat